User: anonymous   Login
Location: Unspecified
(0.0000°N, 0.0000°E)
Time: 07:11:15
(UTC+02:00)
Language:

CZ-4 DEB - Orbit

View from above orbital plane
View from above orbital plane
View from above satellite
View from above satellite

Ground track
Ground track

The orbit data is extracted from the following two-line orbital elements,

1 29508U 06046D   14295.75229678  .00026629  00000-0  14141-2 0  7117
2 29508 097.7024 304.0331 0005086 192.8358 221.6936 15.15281690436611
Epoch (UTC): 22 October 2014 18:03:18
Eccentricity: 0.0005086
inclination: 97.7024°
perigee height: 516 km
apogee height: 523 km
right ascension of ascending node: 304.0331°
argument of perigee: 192.8358°
revolutions per day: 15.15281690
mean anomaly at epoch: 221.6936°
orbit number at epoch: 43661

The dashed part of the orbit path shows where the satellite is in the earth's shadow,  

DLR